Regional Weather Roundup
Issued by NWS Cleveland, OH

Home | Current Version | Previous Version | Text Only | Print | Product List | Glossary On
Versions: 1 2 3 4 5 6 7 8 9 10 11 12 13 14 15 16 17 18 19 20 21 22 23 24 25 26 27 28 29 30 31 32 33 34 35 36 37 38 39 40 41 42 43 44 45 46 47 48 49 50
000
ASUS41 KCLE 281010
RWRCLE
OHIO REGIONAL WEATHER ROUNDUP
NATIONAL WEATHER SERVICE WILMINGTON, OH
500 AM EST FRI NOV 28 2014

NOTE: "FAIR" INDICATES FEW OR NO CLOUDS BELOW 12,000 FEET WITH NO
SIGNIFICANT WEATHER AND/OR OBSTRUCTIONS TO VISIBILITY.

OHZ001>008-015>018-024>027-034-035-043-044-281100-
   NORTHWEST OHIO

CITY           SKY/WX    TMP DP  RH WIND       PRES   REMARKS
DEFIANCE       CLOUDY    24  18  77 W5        30.36F WCI  18
FINDLAY        CLOUDY    25  17  72 W8        30.34S WCI  16
TOLEDO EXPRESS CLEAR     18  10  71 NW5       30.35F WCI  11
TOLEDO METCALF CLEAR     17   8  67 NW6       30.37S WCI   9
LIMA           MOCLDY    24  18  77 NW6       30.34S WCI  17
$$

OHZ009>014-019>023-028>033-038-089-281100-
   NORTHEAST OHIO

CITY           SKY/WX    TMP DP  RH WIND       PRES   REMARKS
CLE-HOPKINS    CLOUDY    23  12  62 W14       30.34S WCI  11
CLE-LAKEFRONT  CLOUDY    26  14  60 W21       30.31R WCI  12
CUY CO. ARPT   NOT AVBL
LORAIN-ELYRIA  CLOUDY    22  12  65 W13       30.34R WCI  10
ASHTABULA      LGT SNOW  26  18  71 NW10      30.27R WCI  16
AKRON-CANTON   MOCLDY    22  13  68 NW10      30.29R WCI  11
WOOSTER        PTCLDY    20  12  71 NW9       30.32R WCI   9
MANSFIELD      CLOUDY    20  14  77 W5        30.31R WCI  13
YOUNGSTOWN     LGT SNOW  24  21  88 W10       30.26R FOG     WCI  14
$$

OHZ042-051>053-060>062-070>072-077>081-281100-
  SOUTHWEST OHIO

CITY           SKY/WX    TMP DP  RH WIND       PRES   REMARKS
CINC-COVINGTON CLOUDY    27  17  66 CALM      30.38S
CINC-LUNKEN    CLOUDY    27  17  66 CALM      30.42S
HAMILTON       CLOUDY    25  18  74 N3        30.40S
DAYTON         PTCLDY    20  15  81 W3        30.35F
WRIGHT-PAT AFB PTCLDY    21  15  78 SW1       30.37S
DAYTON GENERAL PTCLDY    22  15  75 CALM      30.36S
WILMINGTON     CLOUDY    24  15  68 NW3       30.36S
$$

OHZ036-037-039>041-045>050-054>059-063>069-073>076-082>088-281100-
  CENTRAL AND SOUTHEAST OHIO

CITY           SKY/WX    TMP DP  RH WIND       PRES   REMARKS
COLUMBUS       PTCLDY    23  18  81 W8        30.36R WCI  14
OSU AIRPORT    PTCLDY    22  17  81 W6        30.35S WCI  14
BOLTON FIELD   FLURRIES  24  20  86 MISG      30.36S
RICKENBACK AFB PTCLDY    22  18  85 W5        30.37R WCI  16
NEWARK         CLOUDY    27  20  75 W10       30.34R WCI  17
MARION         CLOUDY    24  19  81 W7        30.34R WCI  16
LANCASTER      PTCLDY    22  18  85 W5        30.36R WCI  16
ZANESVILLE     CLOUDY    27  19  72 W7        30.33R WCI  19
NEW PHILLY     CLOUDY    28  21  75 NW12      30.32R WCI  18
$$



USA.gov is the U.S. government's official web portal to all federal, state and local government web resources and services.